#timestamp,LO_Frequency,Hit,StdDev 
1607778015.8,286046980.8,N
1607778035.7,286046980.4,N
1607778055.5,286046976.1,N
1607778075.3,286046975.7,N
1607778095.2,286046975.7,N
1607778115.0,286046982.9,N
1607778115.9,286046982.9,N
1607778135.8,286046985.4,N
1607778155.6,286046988.4,N
1607778175.4,286046988.9,N
1607778195.3,286046993.0,N
1607778215.1,286046995.4,N
1607778235.9,286046994.9,N
1607778255.7,286046994.7,N
1607778275.5,286046994.5,N
1607778295.4,286046994.0,N
1607778315.2,286046990.7,N
1607778335.0,286046991.5,N
1607778335.9,286046991.5,N
1607778355.8,286046993.4,N
1607778375.6,286046998.6,N
1607778395.5,286047003.6,N
1607778415.3,286047005.1,N
1607778435.1,286047013.5,N
1607778455.9,286047011.6,N
1607778475.7,286047012.8,N
1607778495.5,286047020.3,N
1607778515.4,286047017.5,N
1607778535.2,286047020.3,N
1607778555.1,286047018.9,N
1607778556.0,286047018.9,N
1607778575.8,286047019.5,N
1607778595.6,286047021.9,N
1607778615.5,286047019.5,N
1607778635.3,286047017.0,N
1607778655.1,286047020.2,N
1607778675.9,286047028.6,N
1607778695.7,286047027.7,N
1607778715.6,286047022.7,N
1607778735.4,286047020.0,N
1607778755.2,286047014.8,N
1607778775.1,286047013.8,N
1607778776.0,286047013.8,N
1607778795.8,286047009.4,N
1607778815.6,286047004.7,N
1607778835.5,286047005.6,N
1607778855.3,286047008.2,N
1607778875.2,286047010.0,N
1607778895.9,286047012.0,N
1607778915.7,286047011.3,N
1607778935.6,286047011.6,N
1607778955.4,286047007.1,N
1607778975.2,286047004.1,N
1607778995.1,286047002.9,N
1607778996.0,286047002.9,N
1607779015.8,286047003.4,N
1607779035.7,286047005.7,N
1607779055.5,286047005.6,N
1607779075.3,286047005.3,N
1607779095.2,286047007.4,N
1607779115.0,286047000.4,N
1607779115.9,286047000.4,N
1607779135.7,286046997.2,N
1607779155.6,286046997.8,N
1607779175.4,286046990.3,N
1607779195.3,286046994.1,N
1607779215.1,286046997.9,N
1607779216.0,286046997.9,N
1607779235.8,286047000.1,N
1607779255.7,286047009.2,N
1607779275.5,286047012.7,N
1607779295.3,286047014.8,N
1607779315.2,286047012.2,N
1607779335.0,286047010.4,N
1607779335.9,286047010.4,N
1607779355.8,286047010.4,N
1607779375.6,286047011.3,N
1607779395.4,286047016.8,N
1607779415.3,286047015.7,N
1607779435.1,286047003.3,N
1607779455.9,286047000.6,N
1607779475.7,286046997.4,N
1607779495.5,286046999.3,N
1607779515.4,286046998.6,N
1607779535.2,286047006.5,N
1607779555.1,286047007.5,N
1607779556.0,286047007.5,N
1607779575.8,286047008.5,N
1607779595.6,286047011.9,N
1607779615.5,286047014.8,N
1607779635.3,286047011.4,N
1607779655.2,286047010.2,N
1607779675.9,286047008.2,N
1607779695.7,286047001.8,N
1607779715.6,286047000.0,N
1607779735.4,286047001.0,N
1607779755.2,286046999.8,N
1607779775.1,286047002.5,N
1607779776.0,286047002.5,N
1607779795.8,286047002.9,N
1607779815.7,286047004.0,N
1607779835.5,286046999.6,N
1607779855.3,286046999.5,N
1607779875.2,286047000.3,N
1607779895.0,286047002.1,N
1607779895.9,286047002.1,N
1607779915.8,286047003.1,N
1607779935.6,286047003.2,N
1607779955.4,286047004.9,N
1607779975.3,286047009.2,N
1607779995.1,286047007.8,N
1607780015.9,286047010.7,N
1607780035.7,286047003.5,N
1607780055.5,286046997.7,N
1607780075.4,286046994.8,N
1607780095.2,286046997.0,N
1607780115.1,286046999.8,N
1607780116.0,286046999.8,N
1607780135.8,286046995.5,N
1607780155.6,286046990.1,N
1607780175.5,286046991.8,N
1607780195.3,286046990.4,N
1607780215.2,286046991.5,N
1607780235.9,286046992.4,N
1607780255.7,286046996.7,N
1607780275.6,286047002.6,N
1607780295.4,286047003.6,N
1607780315.2,286047005.6,N
1607780335.1,286047000.1,N
1607780336.0,286047000.1,N
1607780355.8,286047000.0,N
1607780375.7,286047001.8,N
1607780395.5,286047000.9,N
1607780415.3,286046995.4,N
1607780435.2,286046999.0,N
1607780455.0,286046999.2,N
1607780455.9,286046999.2,N
1607780475.8,286046996.7,N
1607780495.6,286046997.9,N
1607780515.4,286047001.1,N
1607780535.3,286047001.2,N
1607780555.1,286046995.3,N
1607780575.8,286047000.9,N
1607780595.7,286046996.5,N
1607780615.5,286046993.9,N
1607780635.4,286046992.1,N
1607780655.2,286046996.5,N
1607780675.0,286046999.9,N
1607780675.9,286046999.9,N
1607780695.8,286046997.2,N
1607780715.6,286046992.0,N
1607780735.4,286046987.1,Y
1607780755.3,286046986.0,P
1607780775.1,286046990.0,N
1607780795.9,286046990.5,N
1607780815.7,286046991.1,N
1607780835.5,286046989.8,N
1607780855.4,286046991.2,N
1607780875.2,286046990.4,N
1607780895.0,286046985.8,Y
1607780895.9,286046985.8,P
1607780915.8,286046998.6,N
1607780935.6,286047005.9,N
1607780955.5,286047012.1,N
1607780975.3,286047014.4,N
1607780995.1,286047017.2,N
1607781015.9,286047017.5,N
1607781035.7,286047016.5,N
1607781055.5,286047012.3,N
1607781075.4,286047004.1,N
1607781095.2,286046995.4,N
1607781115.1,286046988.1,N
1607781116.0,286046988.1,N
1607781135.8,286046987.1,N
1607781155.6,286046982.2,N
1607781175.5,286046984.0,N
1607781195.3,286046982.4,N
1607781215.1,286046974.5,N
1607781235.9,286046974.0,N
1607781255.7,286046977.7,N
1607781275.6,286046983.0,N
1607781295.4,286046986.6,N
1607781315.2,286046993.2,N
1607781335.1,286046993.0,N
1607781336.0,286046993.0,N
1607781355.8,286046991.4,N
1607781375.7,286046992.4,N
1607781395.5,286046996.1,N
1607781415.3,286046994.9,N
1607781435.2,286046992.3,N
1607781455.0,286046992.8,N
1607781455.9,286046992.8,N
1607781475.7,286046993.8,N
1607781495.6,286046994.5,N
1607781515.4,286046986.2,N
1607781535.3,286046973.3,N
1607781555.1,286046974.1,N
1607781575.8,286046977.7,N
1607781595.7,286046980.5,N
